Time,TemperatureF,DewpointF,PressureIn,WindDirection,WindDirectionDegrees,WindSpeedMPH,WindSpeedGustMPH,Humidity,HourlyPrecipIn,Conditions,Clouds,dailyrainin,SoftwareType,DateUTC
2013-03-26 00:02:00,43.3,22.8,30.44,NE,44,3.0,7.0,44,0.00,,,0.00,Wunderground v.1.15,2013-03-26 05:02:00,
2013-03-26 00:08:00,43.1,22.6,30.44,NE,38,2.0,7.0,44,0.00,,,0.00,Wunderground v.1.15,2013-03-26 05:08:00,
2013-03-26 00:14:00,43.1,23.2,30.44,NNE,23,2.0,7.0,45,0.00,,,0.00,Wunderground v.1.15,2013-03-26 05:14:00,
2013-03-26 00:20:00,43.0,23.1,30.44,North,8,2.0,7.0,45,0.00,,,0.00,Wunderground v.1.15,2013-03-26 05:20:00,
2013-03-26 00:26:00,42.9,23.0,30.44,NE,56,3.0,7.0,45,0.00,,,0.00,Wunderground v.1.15,2013-03-26 05:26:00,
2013-03-26 00:32:00,42.8,22.9,30.45,NE,36,3.0,5.0,45,0.00,,,0.00,Wunderground v.1.15,2013-03-26 05:32:00,
2013-03-26 00:38:00,42.6,22.7,30.45,NNE,22,3.0,7.0,45,0.00,,,0.00,Wunderground v.1.15,2013-03-26 05:38:00,
2013-03-26 00:44:00,42.2,22.9,30.45,NNE,25,2.0,7.0,46,0.00,,,0.00,Wunderground v.1.15,2013-03-26 05:44:00,
2013-03-26 00:50:00,41.9,22.6,30.45,NNE,32,1.0,7.0,46,0.00,,,0.00,Wunderground v.1.15,2013-03-26 05:50:00,
2013-03-26 00:58:00,41.6,22.8,30.45,NNE,18,2.0,7.0,47,0.00,,,0.00,Wunderground v.1.15,2013-03-26 05:58:00,
2013-03-26 01:04:00,41.4,22.7,30.45,NNE,16,2.0,7.0,47,0.00,,,0.00,Wunderground v.1.15,2013-03-26 06:04:00,
2013-03-26 01:10:00,41.1,22.4,30.45,North,8,1.0,7.0,47,0.00,,,0.00,Wunderground v.1.15,2013-03-26 06:10:00,
2013-03-26 01:16:00,40.9,22.7,30.45,NNE,26,1.0,7.0,48,0.00,,,0.00,Wunderground v.1.15,2013-03-26 06:16:00,
2013-03-26 01:22:00,40.7,22.5,30.44,NE,39,1.0,3.0,48,0.00,,,0.00,Wunderground v.1.15,2013-03-26 06:22:00,
2013-03-26 01:28:00,40.5,22.3,30.45,NNE,22,1.0,7.0,48,0.00,,,0.00,Wunderground v.1.15,2013-03-26 06:28:00,
2013-03-26 01:34:00,40.4,22.7,30.45,NNE,16,1.0,7.0,49,0.00,,,0.00,Wunderground v.1.15,2013-03-26 06:34:00,
2013-03-26 01:40:00,40.1,22.4,30.45,NNE,18,1.0,7.0,49,0.00,,,0.00,Wunderground v.1.15,2013-03-26 06:40:00,
2013-03-26 01:46:00,39.9,22.3,30.45,North,11,0.0,7.0,49,0.00,,,0.00,Wunderground v.1.15,2013-03-26 06:46:00,
2013-03-26 01:52:00,39.8,22.2,30.45,NNE,29,0.0,7.0,49,0.00,,,0.00,Wunderground v.1.15,2013-03-26 06:52:00,
2013-03-26 01:58:00,39.7,22.1,30.45,NNE,16,1.0,7.0,49,0.00,,,0.00,Wunderground v.1.15,2013-03-26 06:58:00,
2013-03-26 02:04:00,39.6,21.5,30.46,North,11,1.0,7.0,48,0.00,,,0.00,Wunderground v.1.15,2013-03-26 07:04:00,
2013-03-26 02:10:00,39.4,21.8,30.46,North,11,1.0,1.0,49,0.00,,,0.00,Wunderground v.1.15,2013-03-26 07:10:00,
2013-03-26 02:16:00,39.3,21.2,30.46,North,6,1.0,7.0,48,0.00,,,0.00,Wunderground v.1.15,2013-03-26 07:16:00,
2013-03-26 02:22:00,39.3,21.2,30.45,NNE,19,1.0,7.0,48,0.00,,,0.00,Wunderground v.1.15,2013-03-26 07:22:00,
2013-03-26 02:28:00,39.2,21.1,30.45,NE,36,1.0,7.0,48,0.00,,,0.00,Wunderground v.1.15,2013-03-26 07:28:00,
2013-03-26 02:34:00,39.3,20.7,30.45,North,7,1.0,7.0,47,0.00,,,0.00,Wunderground v.1.15,2013-03-26 07:34:00,
2013-03-26 02:40:00,39.2,20.6,30.45,NE,44,1.0,1.0,47,0.00,,,0.00,Wunderground v.1.15,2013-03-26 07:40:00,
2013-03-26 02:46:00,39.0,20.5,30.45,NNE,16,1.0,7.0,47,0.00,,,0.00,Wunderground v.1.15,2013-03-26 07:46:00,
2013-03-26 02:52:00,38.7,20.2,30.45,NNE,22,1.0,7.0,47,0.00,,,0.00,Wunderground v.1.15,2013-03-26 07:52:00,
2013-03-26 02:58:00,38.5,20.5,30.44,NE,36,1.0,7.0,48,0.00,,,0.00,Wunderground v.1.15,2013-03-26 07:58:00,
2013-03-26 03:04:00,38.5,20.0,30.44,NE,49,0.0,7.0,47,0.00,,,0.00,Wunderground v.1.15,2013-03-26 08:04:00,
2013-03-26 03:10:00,38.5,20.0,30.44,ENE,70,1.0,7.0,47,0.00,,,0.00,Wunderground v.1.15,2013-03-26 08:10:00,
2013-03-26 03:22:00,38.5,20.0,30.44,ENE,60,0.0,7.0,47,0.00,,,0.00,Wunderground v.1.15,2013-03-26 08:22:00,
2013-03-26 03:28:00,38.5,20.5,30.44,ENE,61,0.0,7.0,48,0.00,,,0.00,Wunderground v.1.15,2013-03-26 08:28:00,
2013-03-26 03:34:00,38.3,20.3,30.44,East,98,0.0,7.0,48,0.00,,,0.00,Wunderground v.1.15,2013-03-26 08:34:00,
2013-03-26 03:40:00,38.0,20.5,30.44,SE,129,0.0,7.0,49,0.00,,,0.00,Wunderground v.1.15,2013-03-26 08:40:00,
2013-03-26 03:46:00,37.9,20.9,30.44,SE,128,0.0,7.0,50,0.00,,,0.00,Wunderground v.1.15,2013-03-26 08:46:00,
2013-03-26 03:52:00,37.8,20.8,30.44,SE,127,0.0,7.0,50,0.00,,,0.00,Wunderground v.1.15,2013-03-26 08:52:00,
2013-03-26 03:58:00,37.8,20.3,30.44,SE,129,0.0,7.0,49,0.00,,,0.00,Wunderground v.1.15,2013-03-26 08:58:00,
2013-03-26 04:06:00,37.7,20.2,30.44,ESE,123,0.0,7.0,49,0.00,,,0.00,Wunderground v.1.15,2013-03-26 09:06:00,
2013-03-26 04:12:00,37.6,20.6,30.44,SE,136,0.0,7.0,50,0.00,,,0.00,Wunderground v.1.15,2013-03-26 09:12:00,
2013-03-26 04:18:00,37.3,20.3,30.44,SE,125,0.0,7.0,50,0.00,,,0.00,Wunderground v.1.15,2013-03-26 09:18:00,
2013-03-26 04:24:00,37.1,20.2,30.44,SE,134,0.0,7.0,50,0.00,,,0.00,Wunderground v.1.15,2013-03-26 09:24:00,
2013-03-26 04:30:00,37.1,20.2,30.44,SE,142,0.0,7.0,50,0.00,,,0.00,Wunderground v.1.15,2013-03-26 09:30:00,
2013-03-26 04:36:00,37.2,19.8,30.44,ESE,120,1.0,7.0,49,0.00,,,0.00,Wunderground v.1.15,2013-03-26 09:36:00,
2013-03-26 04:42:00,37.1,19.7,30.44,ESE,112,1.0,7.0,49,0.00,,,0.00,Wunderground v.1.15,2013-03-26 09:42:00,
2013-03-26 04:48:00,37.0,19.6,30.45,ESE,103,0.0,7.0,49,0.00,,,0.00,Wunderground v.1.15,2013-03-26 09:48:00,
2013-03-26 04:54:00,36.9,19.5,30.45,ESE,123,0.0,7.0,49,0.00,,,0.00,Wunderground v.1.15,2013-03-26 09:54:00,
2013-03-26 05:00:00,36.8,18.9,30.45,SE,124,1.0,7.0,48,0.00,,,0.00,Wunderground v.1.15,2013-03-26 10:00:00,
2013-03-26 05:06:00,36.8,18.9,30.45,ESE,115,1.0,7.0,48,0.00,,,0.00,Wunderground v.1.15,2013-03-26 10:06:00,
2013-03-26 05:12:00,36.7,18.8,30.45,East,95,0.0,7.0,48,0.00,,,0.00,Wunderground v.1.15,2013-03-26 10:12:00,
2013-03-26 05:18:00,36.5,18.6,30.45,East,86,0.0,7.0,48,0.00,,,0.00,Wunderground v.1.15,2013-03-26 10:18:00,
2013-03-26 05:24:00,36.4,18.6,30.45,East,92,0.0,7.0,48,0.00,,,0.00,Wunderground v.1.15,2013-03-26 10:24:00,
2013-03-26 05:30:00,36.4,18.6,30.45,East,93,0.0,7.0,48,0.00,,,0.00,Wunderground v.1.15,2013-03-26 10:30:00,
2013-03-26 05:36:00,36.5,18.2,30.45,ESE,107,0.0,7.0,47,0.00,,,0.00,Wunderground v.1.15,2013-03-26 10:36:00,
2013-03-26 05:42:00,36.5,18.2,30.45,NE,39,0.0,7.0,47,0.00,,,0.00,Wunderground v.1.15,2013-03-26 10:42:00,
2013-03-26 05:48:00,36.8,17.9,30.45,NE,46,1.0,7.0,46,0.00,,,0.00,Wunderground v.1.15,2013-03-26 10:48:00,
2013-03-26 05:54:00,37.0,18.1,30.45,ENE,67,1.0,7.0,46,0.00,,,0.00,Wunderground v.1.15,2013-03-26 10:54:00,
2013-03-26 06:00:00,37.3,17.9,30.45,ENE,66,2.0,3.0,45,0.00,,,0.00,Wunderground v.1.15,2013-03-26 11:00:00,
2013-03-26 06:06:00,37.3,17.9,30.45,ESE,120,2.0,3.0,45,0.00,,,0.00,Wunderground v.1.15,2013-03-26 11:06:00,
2013-03-26 06:12:00,37.2,17.8,30.45,ESE,106,1.0,2.0,45,0.00,,,0.00,Wunderground v.1.15,2013-03-26 11:12:00,
2013-03-26 06:18:00,37.3,17.4,30.45,NE,49,1.0,2.0,44,0.00,,,0.00,Wunderground v.1.15,2013-03-26 11:18:00,
2013-03-26 06:24:00,37.4,17.4,30.46,SE,139,1.0,2.0,44,0.00,,,0.00,Wunderground v.1.15,2013-03-26 11:24:00,
2013-03-26 06:30:00,37.2,17.3,30.46,East,86,1.0,1.0,44,0.00,,,0.00,Wunderground v.1.15,2013-03-26 11:30:00,
2013-03-26 06:36:00,37.1,17.2,30.46,North,9,1.0,1.0,44,0.00,,,0.00,Wunderground v.1.15,2013-03-26 11:36:00,
2013-03-26 06:42:00,37.2,17.3,30.46,ENE,71,1.0,4.0,44,0.00,,,0.00,Wunderground v.1.15,2013-03-26 11:42:00,
2013-03-26 06:48:00,37.1,17.7,30.46,East,88,1.0,4.0,45,0.00,,,0.00,Wunderground v.1.15,2013-03-26 11:48:00,
2013-03-26 06:54:00,36.9,17.5,30.47,SE,134,1.0,2.0,45,0.00,,,0.00,Wunderground v.1.15,2013-03-26 11:54:00,
2013-03-26 07:00:00,36.9,17.5,30.47,ESE,123,1.0,5.0,45,0.00,,,0.00,Wunderground v.1.15,2013-03-26 12:00:00,
2013-03-26 07:06:00,36.8,17.4,30.47,SE,139,1.0,5.0,45,0.00,,,0.00,Wunderground v.1.15,2013-03-26 12:06:00,
2013-03-26 07:12:00,36.4,17.6,30.48,SSE,162,1.0,5.0,46,0.00,,,0.00,Wunderground v.1.15,2013-03-26 12:12:00,
2013-03-26 07:18:00,35.5,17.7,30.48,SSE,162,0.0,5.0,48,0.00,,,0.00,Wunderground v.1.15,2013-03-26 12:18:00,
2013-03-26 07:24:00,35.0,17.7,30.48,SE,142,0.0,5.0,49,0.00,,,0.00,Wunderground v.1.15,2013-03-26 12:24:00,
2013-03-26 07:30:00,35.2,17.9,30.48,ESE,122,1.0,1.0,49,0.00,,,0.00,Wunderground v.1.15,2013-03-26 12:30:00,
2013-03-26 07:36:00,35.3,18.0,30.49,SE,141,1.0,5.0,49,0.00,,,0.00,Wunderground v.1.15,2013-03-26 12:36:00,
2013-03-26 07:42:00,35.3,18.0,30.49,SE,143,1.0,5.0,49,0.00,,,0.00,Wunderground v.1.15,2013-03-26 12:42:00,
2013-03-26 07:48:00,35.4,18.1,30.49,SE,141,0.0,5.0,49,0.00,,,0.00,Wunderground v.1.15,2013-03-26 12:48:00,
2013-03-26 07:54:00,35.8,18.0,30.49,SE,138,1.0,2.0,48,0.00,,,0.00,Wunderground v.1.15,2013-03-26 12:54:00,
2013-03-26 08:00:00,36.4,18.6,30.49,SE,141,1.0,1.0,48,0.00,,,0.00,Wunderground v.1.15,2013-03-26 13:00:00,
2013-03-26 08:08:00,36.8,18.4,30.49,East,95,1.0,2.0,47,0.00,,,0.00,Wunderground v.1.15,2013-03-26 13:08:00,
2013-03-26 08:14:00,37.3,18.4,30.49,SE,126,1.0,2.0,46,0.00,,,0.00,Wunderground v.1.15,2013-03-26 13:14:00,
2013-03-26 08:20:00,37.9,18.9,30.50,SE,145,2.0,3.0,46,0.00,,,0.00,Wunderground v.1.15,2013-03-26 13:20:00,
2013-03-26 08:26:00,39.0,18.9,30.50,SE,137,3.0,3.0,44,0.00,,,0.00,Wunderground v.1.15,2013-03-26 13:26:00,
2013-03-26 08:32:00,39.6,18.9,30.50,ESE,115,3.0,5.0,43,0.00,,,0.00,Wunderground v.1.15,2013-03-26 13:32:00,
2013-03-26 08:38:00,40.0,18.7,30.50,SE,127,5.0,7.0,42,0.00,,,0.00,Wunderground v.1.15,2013-03-26 13:38:00,
2013-03-26 08:44:00,40.4,19.1,30.51,SE,131,5.0,6.0,42,0.00,,,0.00,Wunderground v.1.15,2013-03-26 13:44:00,
2013-03-26 08:50:00,40.7,18.8,30.51,SE,136,5.0,5.0,41,0.00,,,0.00,Wunderground v.1.15,2013-03-26 13:50:00,
2013-03-26 08:56:00,41.1,19.2,30.51,SE,146,4.0,5.0,41,0.00,,,0.00,Wunderground v.1.15,2013-03-26 13:56:00,
2013-03-26 09:02:00,41.4,19.4,30.52,SE,129,4.0,5.0,41,0.00,,,0.00,Wunderground v.1.15,2013-03-26 14:02:00,
2013-03-26 09:08:00,41.9,19.9,30.52,SSE,147,4.0,5.0,41,0.00,,,0.00,Wunderground v.1.15,2013-03-26 14:08:00,
2013-03-26 09:14:00,42.4,19.2,30.52,SE,138,4.0,6.0,39,0.00,,,0.00,Wunderground v.1.15,2013-03-26 14:14:00,
2013-03-26 09:20:00,42.8,20.1,30.52,SE,142,4.0,4.0,40,0.00,,,0.00,Wunderground v.1.15,2013-03-26 14:20:00,
2013-03-26 09:26:00,42.8,20.1,30.52,SSE,153,5.0,8.0,40,0.00,,,0.00,Wunderground v.1.15,2013-03-26 14:26:00,
2013-03-26 09:32:00,43.4,20.1,30.52,South,170,6.0,7.0,39,0.00,,,0.00,Wunderground v.1.15,2013-03-26 14:32:00,
2013-03-26 09:38:00,43.9,19.9,30.52,South,176,5.0,7.0,38,0.00,,,0.00,Wunderground v.1.15,2013-03-26 14:38:00,
2013-03-26 09:44:00,44.0,20.6,30.52,SSE,163,6.0,10.0,39,0.00,,,0.00,Wunderground v.1.15,2013-03-26 14:44:00,
2013-03-26 09:50:00,44.4,19.7,30.52,SSE,148,6.0,6.0,37,0.00,,,0.00,Wunderground v.1.15,2013-03-26 14:50:00,
2013-03-26 09:56:00,44.8,20.1,30.52,SSE,162,6.0,6.0,37,0.00,,,0.00,Wunderground v.1.15,2013-03-26 14:56:00,
2013-03-26 10:02:00,45.5,20.7,30.53,SE,143,5.0,6.0,37,0.00,,,0.00,Wunderground v.1.15,2013-03-26 15:02:00,
2013-03-26 10:08:00,45.4,20.6,30.52,SSE,152,6.0,9.0,37,0.00,,,0.00,Wunderground v.1.15,2013-03-26 15:08:00,
2013-03-26 10:14:00,45.6,20.1,30.52,SE,143,6.0,6.0,36,0.00,,,0.00,Wunderground v.1.15,2013-03-26 15:14:00,
2013-03-26 10:20:00,45.8,20.3,30.52,South,191,6.0,7.0,36,0.00,,,0.00,Wunderground v.1.15,2013-03-26 15:20:00,
2013-03-26 10:26:00,46.4,20.2,30.52,South,188,6.0,7.0,35,0.00,,,0.00,Wunderground v.1.15,2013-03-26 15:26:00,
2013-03-26 10:32:00,47.0,20.7,30.52,South,173,6.0,9.0,35,0.00,,,0.00,Wunderground v.1.15,2013-03-26 15:32:00,
2013-03-26 10:38:00,47.6,21.9,30.52,ESE,123,6.0,9.0,36,0.00,,,0.00,Wunderground v.1.15,2013-03-26 15:38:00,
2013-03-26 10:44:00,47.8,21.4,30.52,ESE,113,5.0,7.0,35,0.00,,,0.00,Wunderground v.1.15,2013-03-26 15:44:00,
2013-03-26 10:50:00,48.6,21.5,30.52,SSW,198,5.0,5.0,34,0.00,,,0.00,Wunderground v.1.15,2013-03-26 15:50:00,
2013-03-26 10:56:00,49.4,21.5,30.52,SSE,162,6.0,9.0,33,0.00,,,0.00,Wunderground v.1.15,2013-03-26 15:56:00,
2013-03-26 11:02:00,49.5,20.8,30.52,ESE,113,6.0,6.0,32,0.00,,,0.00,Wunderground v.1.15,2013-03-26 16:02:00,
2013-03-26 11:08:00,50.1,19.0,30.52,ESE,113,5.0,12.0,29,0.00,,,0.00,Wunderground v.1.15,2013-03-26 16:08:00,
2013-03-26 11:14:00,50.6,18.6,30.51,SE,128,5.0,7.0,28,0.00,,,0.00,Wunderground v.1.15,2013-03-26 16:14:00,
2013-03-26 11:20:00,51.0,21.4,30.51,SSW,194,5.0,5.0,31,0.00,,,0.00,Wunderground v.1.15,2013-03-26 16:20:00,
2013-03-26 11:26:00,51.4,20.2,30.51,SSE,165,4.0,5.0,29,0.00,,,0.00,Wunderground v.1.15,2013-03-26 16:26:00,
2013-03-26 11:32:00,52.1,20.8,30.51,SSE,156,4.0,4.0,29,0.00,,,0.00,Wunderground v.1.15,2013-03-26 16:32:00,
2013-03-26 11:38:00,53.2,20.9,30.51,SSW,203,4.0,8.0,28,0.00,,,0.00,Wunderground v.1.15,2013-03-26 16:38:00,
2013-03-26 11:44:00,52.7,21.3,30.50,SSE,166,5.0,7.0,29,0.00,,,0.00,Wunderground v.1.15,2013-03-26 16:44:00,
2013-03-26 11:50:00,53.4,21.1,30.50,SSE,165,5.0,5.0,28,0.00,,,0.00,Wunderground v.1.15,2013-03-26 16:50:00,
2013-03-26 11:56:00,54.0,22.4,30.50,SSE,161,4.0,6.0,29,0.00,,,0.00,Wunderground v.1.15,2013-03-26 16:56:00,
2013-03-26 12:02:00,54.3,21.8,30.50,SW,229,6.0,6.0,28,0.00,,,0.00,Wunderground v.1.15,2013-03-26 17:02:00,
2013-03-26 12:08:00,54.4,21.1,30.49,SE,139,6.0,8.0,27,0.00,,,0.00,Wunderground v.1.15,2013-03-26 17:08:00,
2013-03-26 12:14:00,54.2,20.9,30.49,SE,146,6.0,9.0,27,0.00,,,0.00,Wunderground v.1.15,2013-03-26 17:14:00,
2013-03-26 12:20:00,54.3,21.0,30.49,SW,221,7.0,7.0,27,0.00,,,0.00,Wunderground v.1.15,2013-03-26 17:20:00,
2013-03-26 12:26:00,55.0,21.6,30.48,SSE,166,5.0,7.0,27,0.00,,,0.00,Wunderground v.1.15,2013-03-26 17:26:00,
2013-03-26 12:32:00,55.6,21.2,30.48,SSE,160,6.0,8.0,26,0.00,,,0.00,Wunderground v.1.15,2013-03-26 17:32:00,
2013-03-26 12:38:00,55.9,21.5,30.48,ESE,103,5.0,8.0,26,0.00,,,0.00,Wunderground v.1.15,2013-03-26 17:38:00,
2013-03-26 12:44:00,56.5,21.1,30.47,SE,143,4.0,5.0,25,0.00,,,0.00,Wunderground v.1.15,2013-03-26 17:44:00,
2013-03-26 12:50:00,56.4,21.0,30.47,South,180,5.0,5.0,25,0.00,,,0.00,Wunderground v.1.15,2013-03-26 17:50:00,
2013-03-26 12:56:00,56.2,19.8,30.47,SSW,210,5.0,6.0,24,0.00,,,0.00,Wunderground v.1.15,2013-03-26 17:56:00,
2013-03-26 13:02:00,56.5,21.1,30.47,SE,124,5.0,10.0,25,0.00,,,0.00,Wunderground v.1.15,2013-03-26 18:02:00,
2013-03-26 13:08:00,56.8,21.3,30.46,SE,129,6.0,10.0,25,0.00,,,0.00,Wunderground v.1.15,2013-03-26 18:08:00,
2013-03-26 13:14:00,57.1,21.6,30.46,SE,131,5.0,8.0,25,0.00,,,0.00,Wunderground v.1.15,2013-03-26 18:14:00,
2013-03-26 13:20:00,57.8,21.2,30.45,SE,143,6.0,6.0,24,0.00,,,0.00,Wunderground v.1.15,2013-03-26 18:20:00,
2013-03-26 13:26:00,57.6,20.0,30.45,WSW,241,6.0,9.0,23,0.00,,,0.00,Wunderground v.1.15,2013-03-26 18:26:00,
2013-03-26 13:32:00,57.5,19.9,30.45,SSE,166,6.0,6.0,23,0.00,,,0.00,Wunderground v.1.15,2013-03-26 18:32:00,
2013-03-26 13:38:00,57.2,20.7,30.44,ESE,105,4.0,7.0,24,0.00,,,0.00,Wunderground v.1.15,2013-03-26 18:38:00,
2013-03-26 13:44:00,58.0,21.4,30.44,ESE,113,3.0,6.0,24,0.00,,,0.00,Wunderground v.1.15,2013-03-26 18:44:00,
2013-03-26 13:50:00,58.5,20.8,30.44,ESE,115,4.0,4.0,23,0.00,,,0.00,Wunderground v.1.15,2013-03-26 18:50:00,
2013-03-26 13:56:00,58.3,21.6,30.43,SSW,200,4.0,9.0,24,0.00,,,0.00,Wunderground v.1.15,2013-03-26 18:56:00,
2013-03-26 14:02:00,58.2,21.5,30.43,SSE,150,6.0,11.0,24,0.00,,,0.00,Wunderground v.1.15,2013-03-26 19:02:00,
2013-03-26 14:08:00,58.2,20.5,30.42,SSE,158,7.0,11.0,23,0.00,,,0.00,Wunderground v.1.15,2013-03-26 19:08:00,
2013-03-26 14:14:00,57.8,20.2,30.42,SE,125,5.0,6.0,23,0.00,,,0.00,Wunderground v.1.15,2013-03-26 19:14:00,
2013-03-26 14:20:00,58.1,21.4,30.42,SE,140,4.0,7.0,24,0.00,,,0.00,Wunderground v.1.15,2013-03-26 19:20:00,
2013-03-26 14:26:00,59.3,22.5,30.41,SE,128,5.0,11.0,24,0.00,,,0.00,Wunderground v.1.15,2013-03-26 19:26:00,
2013-03-26 14:32:00,58.6,20.9,30.41,East,83,5.0,6.0,23,0.00,,,0.00,Wunderground v.1.15,2013-03-26 19:32:00,
2013-03-26 14:38:00,59.1,22.3,30.41,SSE,157,3.0,6.0,24,0.00,,,0.00,Wunderground v.1.15,2013-03-26 19:38:00,
2013-03-26 14:44:00,59.5,21.6,30.40,NE,49,5.0,5.0,23,0.00,,,0.00,Wunderground v.1.15,2013-03-26 19:44:00,
2013-03-26 14:50:00,59.8,20.8,30.40,SSW,210,4.0,4.0,22,0.00,,,0.00,Wunderground v.1.15,2013-03-26 19:50:00,
2013-03-26 14:56:00,59.9,19.8,30.40,SSW,212,4.0,4.0,21,0.00,,,0.00,Wunderground v.1.15,2013-03-26 19:56:00,
2013-03-26 15:02:00,60.0,21.0,30.39,South,176,5.0,8.0,22,0.00,,,0.00,Wunderground v.1.15,2013-03-26 20:02:00,
2013-03-26 15:08:00,60.4,20.2,30.39,SSE,162,6.0,10.0,21,0.00,,,0.00,Wunderground v.1.15,2013-03-26 20:08:00,
2013-03-26 15:14:00,60.5,20.3,30.39,South,187,7.0,7.0,21,0.00,,,0.00,Wunderground v.1.15,2013-03-26 20:14:00,
2013-03-26 15:20:00,60.5,20.3,30.39,SSW,194,5.0,5.0,21,0.00,,,0.00,Wunderground v.1.15,2013-03-26 20:20:00,
2013-03-26 15:26:00,60.9,20.7,30.38,SSW,194,4.0,6.0,21,0.00,,,0.00,Wunderground v.1.15,2013-03-26 20:26:00,
2013-03-26 15:32:00,61.3,19.8,30.38,SSE,162,6.0,8.0,20,0.00,,,0.00,Wunderground v.1.15,2013-03-26 20:32:00,
2013-03-26 15:38:00,61.0,20.7,30.38,WSW,241,5.0,8.0,21,0.00,,,0.00,Wunderground v.1.15,2013-03-26 20:38:00,
2013-03-26 15:44:00,60.6,19.3,30.37,SE,132,3.0,4.0,20,0.00,,,0.00,Wunderground v.1.15,2013-03-26 20:44:00,
2013-03-26 15:50:00,61.1,19.7,30.37,South,173,4.0,5.0,20,0.00,,,0.00,Wunderground v.1.15,2013-03-26 20:50:00,
2013-03-26 15:56:00,61.0,20.7,30.36,SE,138,6.0,7.0,21,0.00,,,0.00,Wunderground v.1.15,2013-03-26 20:56:00,
2013-03-26 16:02:00,61.5,20.0,30.36,SSE,154,5.0,6.0,20,0.00,,,0.00,Wunderground v.1.15,2013-03-26 21:02:00,
2013-03-26 16:08:00,61.7,21.3,30.36,SE,137,6.0,7.0,21,0.00,,,0.00,Wunderground v.1.15,2013-03-26 21:08:00,
2013-03-26 16:14:00,62.1,20.5,30.35,South,190,5.0,8.0,20,0.00,,,0.00,Wunderground v.1.15,2013-03-26 21:14:00,
2013-03-26 16:20:00,61.6,20.1,30.35,SSW,197,4.0,4.0,20,0.00,,,0.00,Wunderground v.1.15,2013-03-26 21:20:00,
2013-03-26 16:26:00,61.5,20.0,30.35,ESE,120,5.0,14.0,20,0.00,,,0.00,Wunderground v.1.15,2013-03-26 21:26:00,
2013-03-26 16:32:00,61.6,20.1,30.34,SSW,210,6.0,8.0,20,0.00,,,0.00,Wunderground v.1.15,2013-03-26 21:32:00,
2013-03-26 16:38:00,61.4,21.1,30.34,SE,133,6.0,10.0,21,0.00,,,0.00,Wunderground v.1.15,2013-03-26 21:38:00,
2013-03-26 16:44:00,61.4,21.1,30.34,ESE,117,6.0,7.0,21,0.00,,,0.00,Wunderground v.1.15,2013-03-26 21:44:00,
2013-03-26 16:50:00,61.4,19.9,30.34,SSE,167,6.0,6.0,20,0.00,,,0.00,Wunderground v.1.15,2013-03-26 21:50:00,
2013-03-26 16:56:00,61.4,19.9,30.33,SSE,158,6.0,11.0,20,0.00,,,0.00,Wunderground v.1.15,2013-03-26 21:56:00,
2013-03-26 17:02:00,61.3,19.8,30.33,East,84,7.0,9.0,20,0.00,,,0.00,Wunderground v.1.15,2013-03-26 22:02:00,
2013-03-26 17:08:00,61.6,20.1,30.33,SSE,153,7.0,9.0,20,0.00,,,0.00,Wunderground v.1.15,2013-03-26 22:08:00,
2013-03-26 17:14:00,61.6,20.1,30.33,South,170,6.0,7.0,20,0.00,,,0.00,Wunderground v.1.15,2013-03-26 22:14:00,
2013-03-26 17:20:00,61.3,18.6,30.33,SE,146,5.0,5.0,19,0.00,,,0.00,Wunderground v.1.15,2013-03-26 22:20:00,
2013-03-26 17:26:00,61.5,20.0,30.33,SSE,158,4.0,8.0,20,0.00,,,0.00,Wunderground v.1.15,2013-03-26 22:26:00,
2013-03-26 17:32:00,61.3,19.8,30.32,SSE,148,5.0,5.0,20,0.00,,,0.00,Wunderground v.1.15,2013-03-26 22:32:00,
2013-03-26 17:38:00,61.6,20.1,30.32,South,190,5.0,6.0,20,0.00,,,0.00,Wunderground v.1.15,2013-03-26 22:38:00,
2013-03-26 17:44:00,61.5,20.0,30.32,SE,143,5.0,7.0,20,0.00,,,0.00,Wunderground v.1.15,2013-03-26 22:44:00,
2013-03-26 17:50:00,61.3,19.8,30.32,South,184,6.0,6.0,20,0.00,,,0.00,Wunderground v.1.15,2013-03-26 22:50:00,
2013-03-26 17:56:00,61.3,19.8,30.32,SE,129,7.0,7.0,20,0.00,,,0.00,Wunderground v.1.15,2013-03-26 22:56:00,
2013-03-26 18:02:00,61.1,19.7,30.32,South,177,7.0,7.0,20,0.00,,,0.00,Wunderground v.1.15,2013-03-26 23:02:00,
2013-03-26 18:08:00,61.6,20.1,30.32,ESE,117,5.0,7.0,20,0.00,,,0.00,Wunderground v.1.15,2013-03-26 23:08:00,
2013-03-26 18:14:00,61.8,21.4,30.32,SE,145,4.0,7.0,21,0.00,,,0.00,Wunderground v.1.15,2013-03-26 23:14:00,
2013-03-26 18:20:00,61.6,20.1,30.32,SE,129,6.0,8.0,20,0.00,,,0.00,Wunderground v.1.15,2013-03-26 23:20:00,
2013-03-26 18:26:00,61.2,19.8,30.32,SSE,148,6.0,8.0,20,0.00,,,0.00,Wunderground v.1.15,2013-03-26 23:26:00,
2013-03-26 18:32:00,61.3,21.0,30.32,SSW,212,5.0,8.0,21,0.00,,,0.00,Wunderground v.1.15,2013-03-26 23:32:00,
2013-03-26 18:38:00,61.3,19.8,30.31,SSE,153,5.0,8.0,20,0.00,,,0.00,Wunderground v.1.15,2013-03-26 23:38:00,
2013-03-26 18:44:00,60.8,19.4,30.31,SE,134,6.0,7.0,20,0.00,,,0.00,Wunderground v.1.15,2013-03-26 23:44:00,
2013-03-26 18:50:00,60.6,20.4,30.31,SSW,211,6.0,6.0,21,0.00,,,0.00,Wunderground v.1.15,2013-03-26 23:50:00,
2013-03-26 18:56:00,60.5,19.2,30.32,SE,132,6.0,7.0,20,0.00,,,0.00,Wunderground v.1.15,2013-03-26 23:56:00,
2013-03-26 19:02:00,60.0,19.9,30.31,SE,133,6.0,6.0,21,0.00,,,0.00,Wunderground v.1.15,2013-03-27 00:02:00,
2013-03-26 19:08:00,59.7,19.6,30.32,SSE,148,6.0,7.0,21,0.00,,,0.00,Wunderground v.1.15,2013-03-27 00:08:00,
2013-03-26 19:14:00,59.6,19.6,30.31,SE,129,6.0,6.0,21,0.00,,,0.00,Wunderground v.1.15,2013-03-27 00:14:00,
2013-03-26 19:20:00,59.3,20.4,30.31,SSE,166,5.0,5.0,22,0.00,,,0.00,Wunderground v.1.15,2013-03-27 00:20:00,
2013-03-26 19:26:00,58.9,20.1,30.31,SSE,150,6.0,9.0,22,0.00,,,0.00,Wunderground v.1.15,2013-03-27 00:26:00,
2013-03-26 19:32:00,58.4,20.7,30.32,SE,139,5.0,5.0,23,0.00,,,0.00,Wunderground v.1.15,2013-03-27 00:32:00,
2013-03-26 19:38:00,57.6,21.0,30.31,SE,143,4.0,5.0,24,0.00,,,0.00,Wunderground v.1.15,2013-03-27 00:38:00,
2013-03-26 19:44:00,56.9,20.4,30.31,South,169,4.0,4.0,24,0.00,,,0.00,Wunderground v.1.15,2013-03-27 00:44:00,
2013-03-26 19:50:00,56.3,20.9,30.31,SE,144,5.0,5.0,25,0.00,,,0.00,Wunderground v.1.15,2013-03-27 00:50:00,
2013-03-26 19:56:00,55.5,21.1,30.32,SSE,149,4.0,5.0,26,0.00,,,0.00,Wunderground v.1.15,2013-03-27 00:56:00,
2013-03-26 20:02:00,55.0,21.6,30.32,SE,134,4.0,5.0,27,0.00,,,0.00,Wunderground v.1.15,2013-03-27 01:02:00,
2013-03-26 20:08:00,54.4,21.1,30.32,SE,139,4.0,5.0,27,0.00,,,0.00,Wunderground v.1.15,2013-03-27 01:08:00,
2013-03-26 20:14:00,54.1,21.7,30.32,SSE,148,4.0,4.0,28,0.00,,,0.00,Wunderground v.1.15,2013-03-27 01:14:00,
2013-03-26 20:20:00,53.7,21.3,30.32,SSE,150,4.0,4.0,28,0.00,,,0.00,Wunderground v.1.15,2013-03-27 01:20:00,
2013-03-26 20:26:00,53.4,21.1,30.32,SE,140,5.0,5.0,28,0.00,,,0.00,Wunderground v.1.15,2013-03-27 01:26:00,
2013-03-26 20:32:00,53.1,20.8,30.32,SSE,148,5.0,5.0,28,0.00,,,0.00,Wunderground v.1.15,2013-03-27 01:32:00,
2013-03-26 20:38:00,52.8,21.4,30.32,SE,145,5.0,5.0,29,0.00,,,0.00,Wunderground v.1.15,2013-03-27 01:38:00,
2013-03-26 20:44:00,52.6,21.2,30.32,SE,141,5.0,6.0,29,0.00,,,0.00,Wunderground v.1.15,2013-03-27 01:44:00,
2013-03-26 20:50:00,52.3,20.9,30.32,SSE,147,5.0,5.0,29,0.00,,,0.00,Wunderground v.1.15,2013-03-27 01:50:00,
2013-03-26 20:56:00,52.0,20.7,30.32,SSE,150,5.0,6.0,29,0.00,,,0.00,Wunderground v.1.15,2013-03-27 01:56:00,
2013-03-26 21:02:00,51.7,21.2,30.32,SE,136,5.0,5.0,30,0.00,,,0.00,Wunderground v.1.15,2013-03-27 02:02:00,
2013-03-26 21:08:00,51.2,20.8,30.32,SSE,150,4.0,5.0,30,0.00,,,0.00,Wunderground v.1.15,2013-03-27 02:08:00,
2013-03-26 21:14:00,50.8,21.2,30.32,SSE,153,4.0,4.0,31,0.00,,,0.00,Wunderground v.1.15,2013-03-27 02:14:00,
2013-03-26 21:20:00,50.7,21.1,30.33,South,172,4.0,4.0,31,0.00,,,0.00,Wunderground v.1.15,2013-03-27 02:20:00,
2013-03-26 21:26:00,50.4,20.9,30.33,SE,146,4.0,4.0,31,0.00,,,0.00,Wunderground v.1.15,2013-03-27 02:26:00,
2013-03-26 21:32:00,50.3,20.8,30.33,SE,134,4.0,4.0,31,0.00,,,0.00,Wunderground v.1.15,2013-03-27 02:32:00,
2013-03-26 21:38:00,50.3,20.8,30.33,SE,135,4.0,6.0,31,0.00,,,0.00,Wunderground v.1.15,2013-03-27 02:38:00,
2013-03-26 21:44:00,50.3,20.8,30.33,SE,126,5.0,5.0,31,0.00,,,0.00,Wunderground v.1.15,2013-03-27 02:44:00,
2013-03-26 21:50:00,50.1,21.3,30.33,SE,138,4.0,6.0,32,0.00,,,0.00,Wunderground v.1.15,2013-03-27 02:50:00,
2013-03-26 21:56:00,49.9,21.2,30.33,SSE,162,5.0,6.0,32,0.00,,,0.00,Wunderground v.1.15,2013-03-27 02:56:00,
2013-03-26 22:02:00,49.7,21.0,30.34,SE,142,5.0,5.0,32,0.00,,,0.00,Wunderground v.1.15,2013-03-27 03:02:00,
2013-03-26 22:08:00,49.5,20.8,30.33,SE,143,4.0,5.0,32,0.00,,,0.00,Wunderground v.1.15,2013-03-27 03:08:00,
2013-03-26 22:14:00,49.2,20.6,30.33,SSE,148,5.0,6.0,32,0.00,,,0.00,Wunderground v.1.15,2013-03-27 03:14:00,
2013-03-26 22:20:00,48.9,20.3,30.34,SSE,158,4.0,4.0,32,0.00,,,0.00,Wunderground v.1.15,2013-03-27 03:20:00,
2013-03-26 22:26:00,48.9,20.3,30.33,SSE,151,4.0,4.0,32,0.00,,,0.00,Wunderground v.1.15,2013-03-27 03:26:00,
2013-03-26 22:32:00,48.7,20.1,30.33,SE,136,5.0,5.0,32,0.00,,,0.00,Wunderground v.1.15,2013-03-27 03:32:00,
2013-03-26 22:40:00,48.6,20.0,30.33,SSE,161,5.0,5.0,32,0.00,,,0.00,Wunderground v.1.15,2013-03-27 03:40:00,
2013-03-26 22:46:00,48.6,20.0,30.34,SE,146,5.0,5.0,32,0.00,,,0.00,Wunderground v.1.15,2013-03-27 03:46:00,
2013-03-26 22:52:00,48.4,19.9,30.34,SE,141,5.0,7.0,32,0.00,,,0.00,Wunderground v.1.15,2013-03-27 03:52:00,
2013-03-26 22:58:00,48.3,20.5,30.33,ESE,120,5.0,9.0,33,0.00,,,0.00,Wunderground v.1.15,2013-03-27 03:58:00,
2013-03-26 23:00:00,48.3,20.5,30.33,SE,134,5.0,5.0,33,0.00,,,0.00,Wunderground v.1.15,2013-03-27 04:00:00,
2013-03-26 23:02:00,48.2,20.4,30.34,SE,135,5.0,5.0,33,0.00,,,0.00,Wunderground v.1.15,2013-03-27 04:02:00,
2013-03-26 23:08:00,48.1,20.3,30.34,SE,135,5.0,6.0,33,0.00,,,0.00,Wunderground v.1.15,2013-03-27 04:08:00,
2013-03-26 23:10:00,48.0,20.2,30.34,SE,132,5.0,5.0,33,0.00,,,0.00,Wunderground v.1.15,2013-03-27 04:10:00,
2013-03-26 23:12:00,47.9,20.1,30.34,SE,140,5.0,5.0,33,0.00,,,0.00,Wunderground v.1.15,2013-03-27 04:12:00,
2013-03-26 23:18:00,47.7,20.0,30.34,SE,141,5.0,9.0,33,0.00,,,0.00,Wunderground v.1.15,2013-03-27 04:18:00,
2013-03-26 23:24:00,47.7,20.0,30.34,SE,132,6.0,7.0,33,0.00,,,0.00,Wunderground v.1.15,2013-03-27 04:24:00,
2013-03-26 23:30:00,47.5,19.8,30.34,SE,134,6.0,6.0,33,0.00,,,0.00,Wunderground v.1.15,2013-03-27 04:30:00,
2013-03-26 23:36:00,47.2,20.2,30.34,SE,136,5.0,8.0,34,0.00,,,0.00,Wunderground v.1.15,2013-03-27 04:36:00,
2013-03-26 23:42:00,46.9,20.0,30.34,SE,141,6.0,6.0,34,0.00,,,0.00,Wunderground v.1.15,2013-03-27 04:42:00,
2013-03-26 23:48:00,46.4,20.2,30.34,SSE,150,6.0,7.0,35,0.00,,,0.00,Wunderground v.1.15,2013-03-27 04:48:00,
2013-03-26 23:54:00,46.1,19.9,30.34,SE,146,6.0,7.0,35,0.00,,,0.00,Wunderground v.1.15,2013-03-27 04:54:00,